Regional Weather Roundup
Issued by NWS

Home | Current Version | Previous Version | Graphics & Text | Print | Product List | Glossary On
Versions: 1 2 3 4 5 6 7 8 9 10 11 12 13 14 15 16 17 18 19 20 21 22 23 24 25 26 27 28 29 30 31 32 33 34 35 36 37 38 39 40 41 42 43 44 45 46 47 48 49 50
000
ASUS43 KOAX 190702
RWRNE

WEATHER ROUNDUP FOR NEBRASKA
NATIONAL WEATHER SERVICE OMAHA NE
100 AM CST FRI DEC 19 2014

NOTES: SATELLITE DATA IS BEING USED TO AUGMENT CLOUD COVER ABOVE
       12000 FEET.
       "FAIR" INDICATES FEW OR NO CLOUDS BELOW 12,000 FEET WITH NO
       SIGNIFICANT WEATHER AND/OR OBSTRUCTIONS TO VISIBILITY.

  * THESE STATIONS DO NOT REPORT WEATHER SUCH AS RAIN...SNOW OR FOG.

NEZ001>004-019>022-054>056-190800-
NEBRASKA PANHANDLE

CITY           SKY/WX    TMP DP  RH WIND       PRES   REMARKS
SCOTTSBLUFF    PTCLDY     8   5  87 CALM      30.08S
ALLIANCE       PTCLDY     6   3  87 SW7       30.06F WCI  -6
CHADRON        PTCLDY    15  11  83 SW6       30.06F WCI   6
SIDNEY         PTCLDY    25  16  68 W10       30.08F WCI  15
$$

NEZ057>060-069>072-079>082-190800-
SOUTHWEST NEBRASKA

CITY           SKY/WX    TMP DP  RH WIND       PRES   REMARKS
NORTH PLATTE   FOG       18  14  84 CALM      30.11F VSB 1/4
IMPERIAL       PTCLDY    19  14  81 SW3       30.11S HAZE
MCCOOK         FOG       27  26  96 SW7       30.15S VSB 1/4 WCI  19
$$

NEZ005>010-023>029-035>040-094-190800-
NORTH CENTRAL NEBRASKA

CITY           SKY/WX    TMP DP  RH WIND       PRES   REMARKS
VALENTINE      PTCLDY    13  10  88 SW6       30.07F WCI   4
BROKEN BOW     CLOUDY    27  26  96 SW8       30.11F FOG     WCI  19
$$

NEZ041-046>049-061>064-073>077-083>087-190800-
SOUTH CENTRAL NEBRASKA

CITY           SKY/WX    TMP DP  RH WIND       PRES   REMARKS
GRAND ISLAND   CLOUDY    29  25  85 SW7       30.18F WCI  22
HASTINGS       CLOUDY    30  25  81 W5        30.17F WCI  25
KEARNEY *      CLOUDY    28  25  86 SW8       30.17S WCI  20
$$

NEZ011>018-030>034-042>045-190800-
NORTHEAST NEBRASKA

CITY           SKY/WX    TMP DP  RH WIND       PRES   REMARKS
NORFOLK        CLOUDY    30  26  85 S8        30.18F WCI  22
BLAIR          CLOUDY    31  28  89 S7        30.22F WCI  24
COLUMBUS *     CLOUDY    30  23  74 S5        30.21F WCI  25
TEKAMAH        CLOUDY    31  28  89 S6        30.24S WCI  25
$$

NEZ050>053-065>068-078-088>093-190800-
SOUTHEAST NEBRASKA

CITY           SKY/WX    TMP DP  RH WIND       PRES   REMARKS
LINCOLN        CLOUDY    31  29  92 S5        30.24F WCI  26
OMAHA EPPLEY   CLOUDY    31  27  85 S7        30.26F WCI  24
FALLS CITY     CLOUDY    30  27  88 CALM      30.25F FOG
$$

NEZ044-045-051>053-067-190800-
OMAHA AREA

CITY           SKY/WX    TMP DP  RH WIND       PRES   REMARKS
OMAHA EPPLEY   CLOUDY    31  27  85 S7        30.26F WCI  24
BLAIR          CLOUDY    31  28  89 S7        30.22F WCI  24
OFFUTT AFB     CLOUDY    31  28  91 S7        30.24F WCI  24
$$


USA.gov is the U.S. government's official web portal to all federal, state and local government web resources and services.